Wind_Speed
77 78 79 87 91 98 107 110 110 114 118 121 115 112 109 104 100 95 92 89 83 79 76 77 78 75 72 67 70 72 73 64 60 53 55 56 51 52 38 32 28 28 23 21 18
82 82 83 87 90 94 97 104 109 109 114 119 118 117 111 110 102 96 96 92 88 85 81 77 83 80 74 72 66 70 68 73 68 60 57 60 55 51 46 36 31 27 24 23 17
82 82 84 89 93 92 95 97 104 111 110 115 117 120 117 115 112 100 99 97 93 89 85 82 80 84 81 76 68 74 72 71 71 67 65 57 56 47 50 46 39 35 32 26 24
81 81 85 89 94 93 94 96 98 104 106 110 117 121 120 119 113 110 103 100 96 91 88 85 82 87 84 83 76 73 77 72 75 71 71 65 60 52 50 52 46 39 41 35 32
80 79 83 90 96 97 97 96 97 98 105 109 112 116 123 122 114 113 109 105 101 95 92 92 86 86 88 84 86 78 77 77 70 74 73 71 65 58 55 53 46 42 42 35 31
77 75 80 88 94 98 99 99 99 99 101 106 110 113 117 119 120 119 116 110 107 104 99 97 94 90 88 87 87 82 82 74 72 70 73 66 69 64 61 57 53 47 46 44 32
71 73 78 87 93 98 101 102 102 101 101 104 108 112 112 111 116 118 120 115 112 109 102 102 98 92 86 87 88 88 84 79 78 72 69 72 65 69 67 63 59 54 48 46 44
70 71 78 86 92 98 101 103 104 103 104 106 107 111 110 112 114 115 117 117 115 110 108 104 99 97 93 87 88 87 87 82 79 78 75 70 68 71 69 67 65 64 56 51 50
70 72 76 84 92 99 102 104 105 107 108 109 110 111 111 115 113 112 113 116 120 115 113 108 106 101 98 93 89 85 87 83 84 80 76 70 74 65 67 70 67 61 58 58 52
72 73 76 85 92 99 104 106 109 112 113 113 115 115 108 108 108 109 110 111 115 119 116 115 109 104 101 97 87 85 87 88 84 85 81 76 74 69 62 65 67 58 55 55 56
73 72 76 85 93 99 106 109 111 111 110 105 102 101 98 103 106 109 111 112 114 117 119 117 112 105 100 100 100 97 90 91 89 90 83 78 79 75 61 65 62 61 56 54 53
70 71 76 85 92 99 103 104 102 99 103 102 102 101 100 100 102 107 111 114 115 115 118 121 114 111 111 106 102 100 93 88 93 90 90 85 81 75 68 62 63 60 58 60 52
69 71 76 84 89 93 96 100 103 103 105 105 104 100 98 100 102 105 108 113 114 118 116 117 116 119 117 113 107 104 97 96 91 92 92 89 83 74 71 66 62 62 64 66 56
70 71 75 83 89 89 95 100 101 103 106 106 104 102 100 99 102 104 107 111 112 114 117 116 121 121 122 119 111 108 105 104 100 95 92 91 84 81 74 71 61 56 65 66 62
71 70 76 74 78 81 92 97 100 104 108 104 104 102 101 100 97 100 104 107 107 109 116 113 114 119 119 118 117 111 114 111 108 101 94 95 88 82 79 68 65 70 71 69 67
71 69 74 76 80 88 97 101 105 110 109 103 102 100 99 97 99 102 104 104 106 111 110 114 112 116 113 118 121 118 119 116 112 106 104 92 92 81 83 76 72 71 74 73 72
70 68 66 70 73 85 96 106 107 110 105 102 98 97 97 96 97 98 99 100 100 104 104 107 106 108 109 114 120 117 117 119 116 114 95 94 97 78 80 77 77 75 70 70 72
70 68 64 71 82 91 99 104 107 101 102 97 96 97 98 98 99 100 100 98 96 97 101 103 104 106 105 107 110 112 117 120 117 112 97 100 95 85 77 78 83 80 75 73 70
73 70 67 70 80 86 94 102 99 97 96 96 98 101 101 100 100 99 98 96 95 95 95 96 102 104 106 109 110 113 122 115 123 118 111 106 92 92 86 80 86 87 83 73 70
76 71 68 70 76 81 89 91 92 97 97 99 103 101 99 98 100 99 99 94 92 91 94 94 99 103 107 112 112 113 116 124 126 120 113 104 94 88 93 84 84 88 88 85 77
78 75 71 70 71 77 76 81 84 90 93 99 98 100 99 101 100 99 98 94 93 95 97 95 96 100 107 112 109 112 114 120 123 121 116 108 99 92 92 93 86 87 88 88 85
76 73 73 71 71 69 73 73 78 80 85 90 96 98 102 103 104 103 101 97 97 98 97 95 98 100 105 110 109 111 114 119 127 121 120 116 105 95 92 95 95 89 88 88 88
78 77 76 74 71 63 65 71 74 75 77 85 93 96 98 103 104 104 102 101 100 100 97 96 99 100 105 112 113 113 113 115 117 120 123 119 106 102 101 99 100 96 91 90 88
78 79 79 78 72 66 63 63 64 67 69 72 82 88 94 99 101 103 102 103 101 102 103 104 102 102 102 106 109 113 111 112 117 123 119 124 113 109 105 104 101 102 97 93 94
85 83 78 71 65 63 66 64 62 62 61 62 65 74 84 93 97 97 99 103 104 105 106 108 106 102 100 103 104 107 113 113 118 120 127 117 120 115 112 110 107 106 103 103 98
86 83 81 79 77 77 74 68 64 62 60 61 63 70 77 82 85 90 96 101 105 108 109 110 108 105 101 101 102 107 110 113 116 116 127 121 119 115 116 117 114 109 105 105 105
88 86 84 82 79 78 75 73 71 72 69 67 68 70 69 69 81 89 92 93 96 100 103 107 106 104 100 100 104 111 102 106 110 108 113 119 114 118 119 120 117 114 111 109 111
Wind_Direction
252 247 242 235 231 227 225 227 228 229 230 230 230 227 227 225 225 224 223 222 221 222 222 222 223 225 227 234 230 231 232 227 227 225 230 230 231 240 235 227 244 233 246 248 233
252 247 241 238 229 225 223 224 225 226 229 231 229 226 227 224 223 224 225 222 221 221 222 222 222 223 226 235 229 226 230 230 229 229 228 231 230 235 235 230 235 247 244 231 226
253 246 237 232 229 225 221 223 223 223 226 226 227 226 226 225 222 222 223 222 221 220 222 222 224 222 223 229 234 227 228 231 231 232 230 230 229 232 235 234 238 239 249 233 262
251 243 233 228 227 224 220 220 221 221 223 223 226 226 226 227 225 222 220 223 221 221 221 224 224 220 223 225 231 235 227 231 234 232 235 236 233 230 234 239 242 241 241 253 254
248 239 230 225 223 221 219 220 219 220 220 222 224 225 226 226 226 225 222 221 221 221 221 224 222 224 221 223 228 234 231 230 233 232 235 238 237 229 238 240 239 238 237 247 235
241 234 227 222 219 217 217 218 219 218 218 219 220 223 225 224 226 227 222 220 220 220 220 222 223 221 223 222 227 231 234 237 230 232 230 234 235 235 238 239 240 237 242 244 236
233 228 223 219 215 213 214 215 216 216 215 216 218 220 222 222 224 225 224 222 220 219 220 221 224 222 223 223 222 230 232 236 232 230 233 232 237 235 235 236 241 240 241 246 239
225 222 219 216 212 212 212 213 214 214 213 214 216 219 219 220 222 222 223 224 221 219 220 221 223 223 226 222 222 227 230 235 235 236 235 238 238 235 234 237 240 242 241 241 244
220 219 215 215 212 211 210 212 213 214 213 214 215 217 216 218 218 220 221 224 222 220 219 221 222 223 224 224 224 226 229 232 235 236 239 237 239 235 233 235 238 242 246 246 246
220 218 214 214 212 210 209 210 213 213 213 214 214 216 215 217 217 219 219 222 223 220 219 219 222 224 223 224 227 228 230 230 234 235 238 237 241 235 233 234 237 239 242 243 245
218 216 213 213 213 210 209 210 212 214 215 217 218 219 216 218 216 217 220 222 222 223 221 220 220 224 226 226 227 228 227 228 231 234 236 240 239 242 234 234 235 235 241 233 230
217 214 212 212 212 211 211 210 212 215 217 218 218 216 214 218 219 218 221 221 222 223 223 222 219 222 225 227 229 229 227 227 230 233 234 238 240 237 238 237 231 235 239 232 231
215 212 212 211 211 211 209 210 212 213 215 214 215 215 215 216 216 216 218 221 221 221 222 223 220 221 224 227 229 228 229 230 230 232 232 237 237 240 238 239 238 236 235 233 233
212 210 211 210 210 208 209 211 212 213 214 214 214 213 213 216 217 217 218 220 221 221 222 222 221 221 222 225 228 228 228 231 230 230 230 234 232 237 237 238 238 232 225 228 235
209 208 209 211 209 209 209 211 211 213 214 213 213 213 213 213 215 218 219 221 222 223 223 222 222 221 224 225 228 228 228 229 230 229 230 231 231 236 238 235 240 234 234 235 239
207 207 208 208 207 204 208 211 211 213 214 212 213 213 213 213 217 218 219 219 219 221 223 222 222 221 222 224 227 226 228 229 230 230 228 230 231 232 239 237 240 241 239 242 237
205 206 206 206 208 209 209 210 212 214 214 213 213 213 214 215 218 220 223 223 222 222 223 224 222 222 223 225 226 226 229 229 231 231 227 231 232 227 236 236 240 240 242 242 239
203 204 203 204 205 206 210 212 214 215 216 213 213 213 214 215 216 219 221 223 222 223 223 223 221 224 224 225 226 226 226 228 231 232 230 229 230 227 231 236 237 239 242 246 242
201 201 201 205 208 208 211 213 215 216 215 213 213 213 215 215 217 219 221 223 224 223 223 224 223 225 224 224 226 227 226 228 229 229 228 227 226 224 226 231 236 237 239 241 246
201 200 202 206 209 209 214 214 214 215 215 214 215 215 216 216 218 220 223 223 223 224 224 223 223 222 223 226 226 227 228 227 228 227 228 228 227 227 227 229 234 239 239 240 243
200 199 202 207 210 211 213 219 217 215 214 215 216 217 216 216 218 219 221 220 222 223 224 223 223 223 224 225 225 226 229 230 229 229 228 227 225 227 228 231 233 239 241 241 242
201 201 204 208 211 208 210 214 218 218 215 215 217 217 218 219 220 221 221 221 222 224 225 224 224 224 225 226 227 227 228 230 229 228 229 227 224 224 230 233 233 236 239 241 241
202 201 205 209 213 210 212 214 216 222 216 214 217 218 220 222 223 224 223 223 223 225 225 226 226 224 224 226 227 228 228 231 232 231 229 229 226 228 227 230 233 234 237 240 241
203 207 206 209 211 210 212 216 219 222 221 216 215 217 219 222 225 226 226 227 227 226 227 229 229 227 226 228 229 230 231 232 232 231 231 230 226 227 231 232 234 236 233 236 239
208 207 210 214 215 215 217 217 216 218 222 222 222 220 220 222 224 226 228 228 229 229 230 231 232 231 231 231 230 232 232 233 234 231 233 232 229 227 230 232 232 235 238 238 238
210 211 211 213 212 212 215 217 217 219 217 216 217 221 221 221 224 226 228 227 228 229 229 232 233 233 232 234 233 233 235 234 235 236 236 234 233 233 233 234 235 236 237 240 241
211 213 213 215 218 218 218 218 218 219 218 216 218 219 219 219 222 223 225 226 227 229 230 232 235 235 233 235 237 235 235 238 238 237 240 239 236 234 235 235 235 236 237 238 241
Height
10458 10466 10479 10490 10505 10521 10538 10553 10570 10588 10605 10623 10641 10656 10671 10692 10705 10720 10735 10743 10752 10762 10772 10782 10790 10799 10807 10813 10820 10826 10832 10840 10848 10857 10863 10868 10873 10876 10883 10886 10889 10892 10893 10895 10897
10431 10442 10455 10465 10480 10495 10512 10527 10545 10563 10579 10599 10614 10633 10650 10666 10685 10705 10716 10728 10736 10746 10758 10769 10777 10787 10796 10801 10810 10817 10822 10828 10839 10848 10855 10858 10866 10873 10877 10881 10884 10888 10889 10892 10893
10403 10414 10427 10439 10453 10471 10488 10503 10521 10541 10555 10574 10590 10609 10627 10642 10665 10690 10695 10709 10721 10734 10745 10756 10765 10776 10785 10792 10800 10808 10813 10821 10830 10839 10844 10851 10860 10868 10870 10873 10879 10884 10886 10889 10890
10374 10386 10398 10413 10428 10446 10466 10482 10498 10517 10533 10551 10569 10587 10603 10619 10647 10664 10682 10694 10708 10722 10735 10742 10751 10762 10770 10781 10787 10794 10804 10810 10819 10827 10833 10842 10851 10860 10863 10867 10872 10877 10881 10884 10887
10348 10360 10373 10388 10403 10423 10442 10460 10477 10495 10512 10530 10547 10562 10580 10604 10627 10646 10663 10676 10691 10706 10718 10725 10738 10747 10757 10768 10776 10783 10791 10799 10809 10819 10827 10834 10841 10852 10858 10859 10865 10871 10876 10879 10882
10324 10336 10350 10364 10381 10400 10419 10438 10457 10476 10493 10510 10526 10539 10559 10588 10599 10620 10637 10653 10668 10685 10699 10708 10717 10730 10744 10756 10767 10772 10781 10789 10801 10809 10819 10825 10834 10844 10848 10851 10857 10864 10869 10874 10877
10305 10315 10328 10343 10361 10379 10398 10418 10436 10454 10473 10490 10506 10517 10537 10562 10576 10598 10615 10632 10649 10665 10682 10690 10704 10722 10735 10746 10753 10761 10772 10779 10791 10799 10807 10818 10826 10830 10840 10843 10848 10856 10862 10867 10872
10286 10296 10309 10325 10343 10360 10380 10399 10417 10433 10451 10468 10482 10496 10520 10537 10560 10578 10594 10612 10632 10649 10664 10678 10693 10707 10718 10730 10739 10749 10760 10773 10779 10788 10795 10808 10811 10819 10828 10834 10839 10846 10855 10860 10866
10268 10280 10293 10309 10326 10343 10361 10380 10398 10411 10427 10441 10459 10476 10499 10518 10542 10559 10577 10592 10608 10629 10646 10663 10675 10689 10702 10716 10726 10740 10754 10764 10762 10775 10782 10796 10792 10807 10819 10823 10830 10839 10847 10852 10856
10251 10264 10277 10293 10309 10326 10342 10359 10374 10386 10401 10420 10437 10449 10489 10512 10529 10545 10559 10576 10591 10608 10626 10642 10660 10674 10688 10706 10725 10732 10739 10747 10752 10758 10767 10781 10782 10799 10810 10815 10823 10829 10835 10841 10846
10235 10250 10262 10278 10293 10309 10323 10335 10353 10371 10396 10423 10450 10466 10488 10499 10514 10530 10542 10553 10566 10586 10609 10625 10646 10671 10684 10689 10693 10705 10720 10729 10736 10742 10759 10770 10772 10784 10797 10807 10815 10819 10826 10832 10836
10224 10236 10249 10263 10279 10295 10312 10338 10360 10385 10393 10412 10427 10446 10466 10484 10500 10514 10521 10535 10551 10572 10587 10603 10640 10655 10655 10668 10681 10695 10708 10719 10721 10730 10745 10751 10762 10769 10788 10796 10804 10812 10817 10821 10826
10211 10225 10237 10251 10266 10284 10311 10329 10337 10356 10368 10388 10409 10432 10452 10465 10478 10490 10502 10516 10533 10546 10569 10588 10620 10626 10636 10648 10665 10681 10695 10701 10708 10712 10729 10738 10754 10762 10776 10784 10793 10802 10805 10812 10814
10200 10214 10226 10238 10248 10276 10299 10310 10328 10337 10350 10371 10392 10411 10432 10450 10462 10475 10489 10494 10511 10533 10546 10561 10583 10601 10617 10631 10646 10661 10674 10677 10688 10694 10711 10721 10744 10750 10761 10774 10785 10789 10794 10796 10803
10190 10205 10217 10235 10258 10278 10294 10302 10313 10321 10330 10358 10377 10398 10418 10433 10448 10460 10475 10485 10504 10517 10526 10556 10568 10590 10604 10629 10626 10649 10645 10655 10664 10677 10691 10709 10728 10744 10751 10768 10771 10774 10779 10787 10796
10181 10196 10207 10221 10239 10254 10267 10280 10288 10297 10318 10347 10368 10391 10406 10425 10433 10438 10452 10466 10481 10495 10513 10529 10551 10570 10589 10594 10603 10618 10626 10639 10650 10662 10672 10705 10716 10739 10745 10755 10755 10759 10766 10774 10785
10174 10189 10204 10220 10240 10244 10251 10256 10270 10284 10316 10342 10365 10384 10399 10413 10423 10431 10446 10461 10476 10489 10507 10519 10541 10556 10569 10577 10588 10610 10619 10625 10634 10642 10690 10690 10695 10742 10728 10741 10740 10744 10752 10760 10770
10166 10178 10194 10206 10213 10221 10235 10246 10258 10290 10313 10341 10356 10367 10380 10391 10406 10415 10429 10446 10464 10478 10489 10504 10524 10541 10558 10566 10577 10586 10588 10602 10616 10638 10676 10665 10688 10722 10719 10720 10723 10731 10736 10743 10752
10153 10166 10183 10194 10199 10214 10220 10235 10260 10286 10309 10331 10340 10349 10363 10380 10395 10402 10421 10435 10451 10468 10479 10492 10507 10523 10535 10539 10548 10560 10571 10599 10588 10611 10630 10645 10679 10695 10703 10702 10701 10709 10722 10729 10734
10142 10162 10175 10183 10192 10209 10214 10232 10252 10270 10293 10308 10321 10340 10359 10374 10384 10396 10409 10432 10445 10456 10461 10475 10488 10498 10507 10513 10533 10550 10556 10554 10569 10592 10616 10644 10668 10685 10690 10691 10686 10692 10704 10712 10722
10137 10151 10164 10173 10186 10196 10218 10227 10244 10259 10277 10296 10317 10333 10349 10359 10372 10383 10400 10417 10427 10432 10441 10455 10467 10483 10490 10501 10521 10530 10535 10547 10558 10573 10598 10626 10648 10663 10670 10675 10678 10674 10684 10696 10704
10135 10150 10158 10167 10175 10191 10207 10222 10232 10251 10270 10291 10304 10318 10331 10343 10356 10369 10387 10399 10406 10412 10426 10440 10446 10463 10477 10484 10496 10508 10520 10521 10528 10566 10581 10600 10628 10646 10653 10657 10660 10660 10665 10675 10686
10129 10140 10147 10160 10171 10194 10204 10213 10225 10239 10260 10276 10290 10303 10319 10330 10342 10356 10368 10378 10391 10399 10413 10424 10432 10446 10455 10463 10481 10489 10507 10517 10526 10540 10560 10580 10627 10626 10627 10631 10638 10645 10649 10657 10666
10123 10130 10139 10151 10171 10189 10199 10211 10224 10233 10245 10262 10278 10291 10304 10314 10326 10339 10355 10362 10375 10385 10392 10394 10410 10427 10445 10458 10462 10474 10491 10500 10503 10510 10544 10557 10591 10600 10609 10618 10624 10625 10626 10635 10644
10110 10125 10142 10163 10179 10191 10194 10203 10214 10226 10240 10254 10268 10283 10292 10298 10308 10323 10337 10349 10356 10366 10374 10374 10393 10413 10429 10437 10450 10458 10466 10475 10477 10511 10505 10552 10561 10578 10584 10589 10595 10600 10617 10617 10625
10103 10121 10134 10146 10158 10168 10179 10195 10209 10220 10230 10240 10252 10259 10268 10281 10299 10307 10311 10320 10331 10341 10352 10360 10375 10393 10410 10415 10428 10430 10440 10456 10471 10494 10498 10535 10551 10569 10568 10568 10578 10594 10602 10606 10608
10101 10112 10125 10137 10151 10163 10176 10186 10196 10202 10215 10227 10234 10241 10255 10273 10268 10272 10284 10300 10316 10327 10340 10349 10362 10374 10394 10401 10398 10399 10441 10452 10467 10480 10486 10502 10534 10528 10535 10546 10559 10569 10578 10586 10588